Regional Weather Roundup
Issued by NWS Newport/Morehead, NC

Current Version | Previous Version | Graphics & Text | Print | Product List | Glossary Off
Versions: 1 2 3 4 5 6 7 8 9 10 11 12 13 14 15 16 17 18 19 20 21 22 23 24 25 26 27 28 29 30 31 32 33 34 35 36 37 38 39 40 41 42 43 44 45 46 47 48 49 50

000
ASUS42 KMHX 251626
RWRMHX
WEATHER ROUNDUP FOR EASTERN NORTH CAROLINA
NATIONAL WEATHER SERVICE NEWPORT/MOREHEAD CITY NC
1200 PM EDT SUN JUN 25 2017

NOTE: "FAIR" INDICATES FEW OR NO CLOUDS BELOW 12,000 FEET
WITH NO SIGNIFICANT WEATHER AND/OR OBSTRUCTIONS TO VISIBILITY

NCZ015>017-031-032-045>047-102-103-251700-
NORTH COAST

CITY           SKY/WX    TMP DP  RH WIND       PRES   REMARKS
EDENTON        PTSUNNY   84  75  74 W5        30.04F
ELIZABETH CITY CLOUDY    84  75  74 SW5       30.03S
KITTY HAWK     CLOUDY    80  72  74 W5        30.03R
MANTEO         CLOUDY    81  73  78 N5        30.04R

$$

NCZ045>047-081-094-103-104-251700-
CENTRAL COAST

CITY           SKY/WX    TMP DP  RH WIND       PRES   REMARKS
FRISCO         CLOUDY    81  76  84 SW5       30.04S

$$

NCZ095-097-098-100-101-251700-
SOUTHERN COAST

CITY           SKY/WX    TMP DP  RH WIND       PRES   REMARKS
BEAUFORT       CLOUDY    81  77  88 W9        30.05S
CEDAR ISLAND   NOT AVBL
JACKSONVILLE   NOT AVBL
PINEY ISLAND   CLOUDY   N/A N/A N/A W8        30.04S
WILMINGTON     CLOUDY    84  74  71 W8        30.05F


$$

NCZ011>013-027>030-043-044-078>080-089-090>093-098-251700-
COASTAL PLAIN

CITY           SKY/WX    TMP DP  RH WIND       PRES   REMARKS
AHOSKIE          N/A     79  72  80 CALM      30.06R
CLINTON        CLOUDY    80  76  89 NW3       30.07F
ELIZABETHTOWN  NOT AVBL
GOLDSBORO      CLOUDY    81  77  89 W3        30.05S
GREENVILLE     CLOUDY    82  72  69 CALM      30.07S
HAVELOCK       CLOUDY    81  75  82 SW6       30.05F
KENANSVILLE    CLOUDY    79  75  89 NW7       30.07S
KINSTON        CLOUDY    81  72  74 W3        30.07R
NEW BERN       CLOUDY    81  75  82 W5        30.06S
RICHLANDS      CLOUDY    80  75  84 W5        30.07S
ROCKY MOUNT    PTSUNNY   81  70  69 VRB5      30.07R
WASHINGTON     CLOUDY   N/A N/A N/A W3        30.06R
WHITEVILLE     CLOUDY    82  73  76 W3        30.07R

$$

AMZ130-135-150-152-154-156-158-170-250-252-270-ANZ085-086-088-633-658-670-251700-
MARINE OBSERVATIONS

STATION/POSITION TIME  TEMP    WIND        PRES    WAVE   SWELL
                       AIR SEA DIR/SP/G            HT/PER HT/PER
                 (UTC) (F)     (DEG/KT/KT) (MB)    (FT/S) (FT/S)
CHESAPEAKE LIGHT NOT AVBL
64 E VA BEACH    1550   72 73  280/  6/  8 1017.0    4/ 7   3/ 7
DUCK             1600   79 61  250/  4/  5 1016.5
2 E DUCK         NOT AVBL
OREGON INLET     1600      78  240/  4/  5 1016.8
13E OREGON INLT  1548      76                N/A     3/ 6   3/ 6
HATTERAS CG      1600   79 78  260/  5/  6 1017.0
DIAMOND BUOY     1550   78 80  260/  8/ 10 1017.1    4/ 6   3/ 6
CAPE LOOKOUT     1600   80     250/ 11/ 13 1017.4
BEAUFORT LAB     1600   80 78  240/  3/  9 1017.0
30 SE NEW RVR IN 1608   79 80  260/  8/ 10 1018.0
30 SE NEW RVR IN 1613      80                N/A     4/ 6
27 SE WRIGHTSVLE 1608   79 80  220/ 10/ 14 1017.4
5 SE WRIGHTSVLE  1608   80 80  200/  6/  8 1017.6
225 S CAPE HAT   1550   81 80  210/ 14/ 16 1021.1    4/ 6   2/15
41 SE CHARLESTON 1610   80 81  220/ 12/ 14 1018.8

$$




USA.gov is the U.S. government's official web portal to all federal, state and local government web resources and services.